date,time,SUV Intensity [MED/Hr],UV Index,Daily total [MED],Since Last [MED]
08/10/2022,00:01:16,0.000,0.0,0.0,0.0
08/10/2022,00:02:15,0.000,0.0,0.0,0.0
08/10/2022,00:03:15,-0.001,0.0,0.0,0.0
08/10/2022,00:04:15,0.000,0.0,0.0,0.0
08/10/2022,00:05:15,0.000,0.0,0.0,0.0
08/10/2022,00:06:15,0.000,0.0,0.0,0.0
08/10/2022,00:07:15,0.000,0.0,0.0,0.0
08/10/2022,00:08:15,0.000,0.0,0.0,0.0
08/10/2022,00:09:15,0.000,0.0,0.0,0.0
08/10/2022,00:10:16,0.000,0.0,0.0,0.0
08/10/2022,00:11:15,0.000,0.0,0.0,0.0
08/10/2022,00:12:15,0.001,0.0,0.0,0.0
08/10/2022,00:13:16,0.001,0.0,0.0,0.0
08/10/2022,00:14:15,0.000,0.0,0.0,0.0
08/10/2022,00:15:15,0.000,0.0,0.0,0.0
08/10/2022,00:16:15,-0.001,0.0,0.0,0.0
08/10/2022,00:17:16,0.000,0.0,0.0,0.0
08/10/2022,00:18:20,0.001,0.0,0.0,0.0
08/10/2022,00:19:16,0.000,0.0,0.0,0.0
08/10/2022,00:20:15,0.000,0.0,0.0,0.0
08/10/2022,00:21:15,0.000,0.0,0.0,0.0
08/10/2022,00:22:15,0.000,0.0,0.0,0.0
08/10/2022,00:23:15,0.001,0.0,0.0,0.0
08/10/2022,00:24:15,0.000,0.0,0.0,0.0
08/10/2022,00:25:15,0.000,0.0,0.0,0.0
08/10/2022,00:26:15,-0.000,0.0,0.0,0.0
08/10/2022,00:27:15,0.000,0.0,0.0,0.0
08/10/2022,00:28:16,0.001,0.0,0.0,0.0
08/10/2022,00:29:15,0.000,0.0,0.0,0.0
08/10/2022,00:30:15,0.000,0.0,0.0,0.0
08/10/2022,00:31:16,0.001,0.0,0.0,0.0
08/10/2022,00:32:17,0.000,0.0,0.0,0.0
08/10/2022,00:33:15,0.000,0.0,0.0,0.0
08/10/2022,00:34:16,-0.001,0.0,0.0,0.0
08/10/2022,00:35:15,0.000,0.0,0.0,0.0
08/10/2022,00:36:15,0.000,0.0,0.0,0.0
08/10/2022,00:37:16,-0.001,0.0,0.0,0.0
08/10/2022,00:38:15,0.000,0.0,0.0,0.0
08/10/2022,00:39:16,0.000,0.0,0.0,0.0
08/10/2022,00:40:15,0.001,0.0,0.0,0.0
08/10/2022,00:41:15,0.000,0.0,0.0,0.0
08/10/2022,00:42:15,0.000,0.0,0.0,0.0
08/10/2022,00:43:15,-0.000,0.0,0.0,0.0
08/10/2022,00:44:15,0.000,0.0,0.0,0.0
08/10/2022,00:45:15,0.000,0.0,0.0,0.0
08/10/2022,00:46:16,0.002,0.0,0.0,0.0
08/10/2022,00:47:15,0.001,0.0,0.0,0.0
08/10/2022,00:48:15,0.000,0.0,0.0,0.0
08/10/2022,00:49:15,0.001,0.0,0.0,0.0
08/10/2022,00:50:16,0.001,0.0,0.0,0.0
08/10/2022,00:51:15,0.000,0.0,0.0,0.0
08/10/2022,00:52:16,0.000,0.0,0.0,0.0
08/10/2022,00:53:15,-0.001,0.0,0.0,0.0
08/10/2022,00:54:15,0.000,0.0,0.0,0.0
08/10/2022,00:55:16,0.001,0.0,0.0,0.0
08/10/2022,00:56:15,0.000,0.0,0.0,0.0
08/10/2022,00:57:15,0.000,0.0,0.0,0.0
08/10/2022,00:58:15,-0.000,0.0,0.0,0.0
08/10/2022,00:59:16,0.000,0.0,0.0,0.0
08/10/2022,01:00:15,0.000,0.0,0.0,0.0
08/10/2022,01:01:15,0.000,0.0,0.0,0.0
08/10/2022,01:02:16,0.000,0.0,0.0,0.0
08/10/2022,01:03:15,0.000,0.0,0.0,0.0
08/10/2022,01:04:15,0.000,0.0,0.0,0.0
08/10/2022,01:05:16,0.001,0.0,0.0,0.0
08/10/2022,01:06:15,0.000,0.0,0.0,0.0
08/10/2022,01:07:15,0.000,0.0,0.0,0.0
08/10/2022,01:08:15,0.001,0.0,0.0,0.0
08/10/2022,01:09:15,0.000,0.0,0.0,0.0
08/10/2022,01:10:16,0.000,0.0,0.0,0.0
08/10/2022,01:11:15,0.000,0.0,0.0,0.0
08/10/2022,01:12:15,0.000,0.0,0.0,0.0
08/10/2022,01:13:15,-0.001,0.0,0.0,0.0
08/10/2022,01:14:15,0.000,0.0,0.0,0.0
08/10/2022,01:15:15,0.001,0.0,0.0,0.0
08/10/2022,01:16:16,0.000,0.0,0.0,0.0
08/10/2022,01:17:16,0.000,0.0,0.0,0.0
08/10/2022,01:18:19,0.001,0.0,0.0,0.0
08/10/2022,01:19:16,0.001,0.0,0.0,0.0
08/10/2022,01:20:15,0.000,0.0,0.0,0.0
08/10/2022,01:21:15,0.000,0.0,0.0,0.0
08/10/2022,01:22:15,0.000,0.0,0.0,0.0
08/10/2022,01:23:16,0.001,0.0,0.0,0.0
08/10/2022,01:24:15,0.001,0.0,0.0,0.0
08/10/2022,01:25:15,0.000,0.0,0.0,0.0
08/10/2022,01:26:16,0.000,0.0,0.0,0.0
08/10/2022,01:27:15,-0.001,0.0,0.0,0.0
08/10/2022,01:28:16,0.000,0.0,0.0,0.0
08/10/2022,01:29:15,0.000,0.0,0.0,0.0
08/10/2022,01:30:15,-0.000,0.0,0.0,0.0
08/10/2022,01:31:16,0.001,0.0,0.0,0.0
08/10/2022,01:32:15,0.001,0.0,0.0,0.0
08/10/2022,01:33:15,0.000,0.0,0.0,0.0
08/10/2022,01:34:15,0.000,0.0,0.0,0.0
08/10/2022,01:35:16,0.000,0.0,0.0,0.0
08/10/2022,01:36:16,0.001,0.0,0.0,0.0
08/10/2022,01:37:16,0.000,0.0,0.0,0.0
08/10/2022,01:38:15,0.000,0.0,0.0,0.0
08/10/2022,01:39:15,-0.001,0.0,0.0,0.0
08/10/2022,01:40:15,0.000,0.0,0.0,0.0
08/10/2022,01:41:15,0.001,0.0,0.0,0.0
08/10/2022,01:42:16,0.000,0.0,0.0,0.0
08/10/2022,01:43:15,0.000,0.0,0.0,0.0
08/10/2022,01:44:16,0.001,0.0,0.0,0.0
08/10/2022,01:45:15,0.000,0.0,0.0,0.0
08/10/2022,01:46:16,-0.000,0.0,0.0,0.0
08/10/2022,01:47:15,0.000,0.0,0.0,0.0
08/10/2022,01:48:15,0.001,0.0,0.0,0.0
08/10/2022,01:49:15,0.001,0.0,0.0,0.0
08/10/2022,01:50:16,0.000,0.0,0.0,0.0
08/10/2022,01:51:15,-0.000,0.0,0.0,0.0
08/10/2022,01:52:15,0.001,0.0,0.0,0.0
08/10/2022,01:53:16,0.000,0.0,0.0,0.0
08/10/2022,01:54:15,-0.001,0.0,0.0,0.0
08/10/2022,01:55:15,0.001,0.0,0.0,0.0
08/10/2022,01:56:16,0.001,0.0,0.0,0.0
08/10/2022,01:57:15,0.002,0.0,0.0,0.0
08/10/2022,01:58:15,0.001,0.0,0.0,0.0
08/10/2022,01:59:16,0.001,0.0,0.0,0.0
08/10/2022,02:00:15,-0.000,0.0,0.0,0.0
08/10/2022,02:01:16,0.001,0.0,0.0,0.0
08/10/2022,02:02:15,0.000,0.0,0.0,0.0
08/10/2022,02:03:15,0.000,0.0,0.0,0.0
08/10/2022,02:04:16,0.000,0.0,0.0,0.0
08/10/2022,02:05:17,0.000,0.0,0.0,0.0
08/10/2022,02:06:15,0.000,0.0,0.0,0.0
08/10/2022,02:07:15,-0.001,0.0,0.0,0.0
08/10/2022,02:08:16,0.000,0.0,0.0,0.0
08/10/2022,02:09:15,0.001,0.0,0.0,0.0
08/10/2022,02:10:16,0.000,0.0,0.0,0.0
08/10/2022,02:11:15,0.000,0.0,0.0,0.0
08/10/2022,02:12:15,0.000,0.0,0.0,0.0
08/10/2022,02:13:16,0.001,0.0,0.0,0.0
08/10/2022,02:14:15,0.000,0.0,0.0,0.0
08/10/2022,02:15:15,0.000,0.0,0.0,0.0
08/10/2022,02:16:15,0.000,0.0,0.0,0.0
08/10/2022,02:17:15,0.001,0.0,0.0,0.0
08/10/2022,02:18:15,0.000,0.0,0.0,0.0
08/10/2022,02:19:16,0.000,0.0,0.0,0.0
08/10/2022,02:20:15,0.000,0.0,0.0,0.0
08/10/2022,02:21:15,0.001,0.0,0.0,0.0
08/10/2022,02:22:15,0.000,0.0,0.0,0.0
08/10/2022,02:23:16,0.001,0.0,0.0,0.0
08/10/2022,02:24:15,0.001,0.0,0.0,0.0
08/10/2022,02:25:15,0.001,0.0,0.0,0.0
08/10/2022,02:26:16,0.001,0.0,0.0,0.0
08/10/2022,02:27:15,0.001,0.0,0.0,0.0
08/10/2022,02:28:16,0.001,0.0,0.0,0.0
08/10/2022,02:29:15,0.001,0.0,0.0,0.0
08/10/2022,02:30:15,0.000,0.0,0.0,0.0
08/10/2022,02:31:16,0.001,0.0,0.0,0.0
08/10/2022,02:32:15,0.001,0.0,0.0,0.0
08/10/2022,02:33:15,0.001,0.0,0.0,0.0
08/10/2022,02:34:16,0.001,0.0,0.0,0.0
08/10/2022,02:35:15,0.001,0.0,0.0,0.0
08/10/2022,02:36:16,0.001,0.0,0.0,0.0
08/10/2022,02:37:16,0.001,0.0,0.0,0.0
08/10/2022,02:38:15,0.001,0.0,0.0,0.0
08/10/2022,02:39:15,0.000,0.0,0.0,0.0
08/10/2022,02:40:16,-0.000,0.0,0.0,0.0
08/10/2022,02:41:15,0.000,0.0,0.0,0.0
08/10/2022,02:42:15,0.000,0.0,0.0,0.0
08/10/2022,02:43:15,0.000,0.0,0.0,0.0
08/10/2022,02:44:16,0.000,0.0,0.0,0.0
08/10/2022,02:45:15,0.001,0.0,0.0,0.0
08/10/2022,02:46:15,0.001,0.0,0.0,0.0
08/10/2022,02:47:16,0.001,0.0,0.0,0.0
08/10/2022,02:48:15,0.001,0.0,0.0,0.0
08/10/2022,02:49:15,0.001,0.0,0.0,0.0
08/10/2022,02:50:15,0.001,0.0,0.0,0.0
08/10/2022,02:51:16,0.001,0.0,0.0,0.0
08/10/2022,02:52:15,0.000,0.0,0.0,0.0
08/10/2022,02:53:15,0.001,0.0,0.0,0.0
08/10/2022,02:54:15,0.001,0.0,0.0,0.0
08/10/2022,02:55:16,0.001,0.0,0.0,0.0
08/10/2022,02:56:16,0.001,0.0,0.0,0.0
08/10/2022,02:57:16,0.001,0.0,0.0,0.0
08/10/2022,02:58:15,0.001,0.0,0.0,0.0
08/10/2022,02:59:15,0.000,0.0,0.0,0.0
08/10/2022,03:00:16,0.001,0.0,0.0,0.0
08/10/2022,03:01:16,0.000,0.0,0.0,0.0
08/10/2022,03:02:16,0.001,0.0,0.0,0.0
08/10/2022,03:03:15,-0.000,0.0,0.0,0.0
08/10/2022,03:04:15,0.001,0.0,0.0,0.0
08/10/2022,03:05:15,0.001,0.0,0.0,0.0
08/10/2022,03:06:15,0.001,0.0,0.0,0.0
08/10/2022,03:07:15,0.001,0.0,0.0,0.0
08/10/2022,03:08:18,0.001,0.0,0.0,0.0
08/10/2022,03:09:16,0.001,0.0,0.0,0.0
08/10/2022,03:10:16,0.001,0.0,0.0,0.0
08/10/2022,03:11:15,0.001,0.0,0.0,0.0
08/10/2022,03:12:15,0.001,0.0,0.0,0.0
08/10/2022,03:13:16,0.001,0.0,0.0,0.0
08/10/2022,03:14:15,0.001,0.0,0.0,0.0
08/10/2022,03:15:15,-0.000,0.0,0.0,0.0
08/10/2022,03:16:16,0.001,0.0,0.0,0.0
08/10/2022,03:17:15,0.001,0.0,0.0,0.0
08/10/2022,03:18:15,0.001,0.0,0.0,0.0
08/10/2022,03:19:16,0.000,0.0,0.0,0.0
08/10/2022,03:20:15,0.001,0.0,0.0,0.0
08/10/2022,03:21:15,0.001,0.0,0.0,0.0
08/10/2022,03:22:16,0.001,0.0,0.0,0.0
08/10/2022,03:23:16,0.001,0.0,0.0,0.0
08/10/2022,03:24:15,0.000,0.0,0.0,0.0
08/10/2022,03:25:15,0.001,0.0,0.0,0.0
08/10/2022,03:26:16,0.001,0.0,0.0,0.0
08/10/2022,03:27:15,0.001,0.0,0.0,0.0
08/10/2022,03:28:16,0.001,0.0,0.0,0.0
08/10/2022,03:29:16,0.001,0.0,0.0,0.0
08/10/2022,03:30:16,-0.000,0.0,0.0,0.0
08/10/2022,03:31:15,0.001,0.0,0.0,0.0
08/10/2022,03:32:16,0.001,0.0,0.0,0.0
08/10/2022,03:33:15,0.001,0.0,0.0,0.0
08/10/2022,03:34:16,0.001,0.0,0.0,0.0
08/10/2022,03:35:16,0.001,0.0,0.0,0.0
08/10/2022,03:36:16,0.001,0.0,0.0,0.0
08/10/2022,03:37:16,0.000,0.0,0.0,0.0
08/10/2022,03:38:15,0.001,0.0,0.0,0.0
08/10/2022,03:39:16,0.001,0.0,0.0,0.0
08/10/2022,03:40:16,0.000,0.0,0.0,0.0
08/10/2022,03:41:15,0.001,0.0,0.0,0.0
08/10/2022,03:42:16,0.001,0.0,0.0,0.0
08/10/2022,03:43:15,0.001,0.0,0.0,0.0
08/10/2022,03:44:16,0.001,0.0,0.0,0.0
08/10/2022,03:45:16,0.001,0.0,0.0,0.0
08/10/2022,03:46:15,0.001,0.0,0.0,0.0
08/10/2022,03:47:16,0.001,0.0,0.0,0.0
08/10/2022,03:48:16,0.001,0.0,0.0,0.0
08/10/2022,03:49:15,0.001,0.0,0.0,0.0
08/10/2022,03:50:15,0.001,0.0,0.0,0.0
08/10/2022,03:51:15,0.001,0.0,0.0,0.0
08/10/2022,03:52:16,0.001,0.0,0.0,0.0
08/10/2022,03:53:15,0.000,0.0,0.0,0.0
08/10/2022,03:54:16,0.001,0.0,0.0,0.0
08/10/2022,03:55:16,0.001,0.0,0.0,0.0
08/10/2022,03:56:15,0.001,0.0,0.0,0.0
08/10/2022,03:57:16,0.001,0.0,0.0,0.0
08/10/2022,03:58:15,0.001,0.0,0.0,0.0
08/10/2022,03:59:16,0.001,0.0,0.0,0.0
08/10/2022,04:00:15,0.001,0.0,0.0,0.0
08/10/2022,04:01:15,0.001,0.0,0.0,0.0
08/10/2022,04:02:16,0.001,0.0,0.0,0.0
08/10/2022,04:03:16,0.001,0.0,0.0,0.0
08/10/2022,04:04:16,0.001,0.0,0.0,0.0
08/10/2022,04:05:15,0.001,0.0,0.0,0.0
08/10/2022,04:06:16,0.001,0.0,0.0,0.0
08/10/2022,04:07:15,0.001,0.0,0.0,0.0
08/10/2022,04:08:16,0.001,0.0,0.0,0.0
08/10/2022,04:09:15,0.001,0.0,0.0,0.0
08/10/2022,04:10:16,0.000,0.0,0.0,0.0
08/10/2022,04:11:16,0.001,0.0,0.0,0.0
08/10/2022,04:12:15,0.001,0.0,0.0,0.0
08/10/2022,04:13:15,0.001,0.0,0.0,0.0
08/10/2022,04:14:16,0.001,0.0,0.0,0.0
08/10/2022,04:15:16,0.001,0.0,0.0,0.0
08/10/2022,04:16:15,0.001,0.0,0.0,0.0
08/10/2022,04:17:16,0.001,0.0,0.0,0.0
08/10/2022,04:18:15,0.001,0.0,0.0,0.0
08/10/2022,04:19:16,0.001,0.0,0.0,0.0
08/10/2022,04:20:16,0.001,0.0,0.0,0.0
08/10/2022,04:21:15,-0.000,0.0,0.0,0.0
08/10/2022,04:22:16,0.001,0.0,0.0,0.0
08/10/2022,04:23:16,0.001,0.0,0.0,0.0
08/10/2022,04:24:16,0.001,0.0,0.0,0.0
08/10/2022,04:25:16,0.001,0.0,0.0,0.0
08/10/2022,04:26:16,0.000,0.0,0.0,0.0
08/10/2022,04:27:16,0.001,0.0,0.0,0.0
08/10/2022,04:28:16,0.001,0.0,0.0,0.0
08/10/2022,04:29:15,0.001,0.0,0.0,0.0
08/10/2022,04:30:16,0.001,0.0,0.0,0.0
08/10/2022,04:31:15,0.001,0.0,0.0,0.0
08/10/2022,04:32:15,0.001,0.0,0.0,0.0
08/10/2022,04:33:16,-0.000,0.0,0.0,0.0
08/10/2022,04:34:16,0.001,0.0,0.0,0.0
08/10/2022,04:35:16,0.000,0.0,0.0,0.0
08/10/2022,04:36:16,0.001,0.0,0.0,0.0
08/10/2022,04:37:16,0.001,0.0,0.0,0.0
08/10/2022,04:38:16,0.001,0.0,0.0,0.0
08/10/2022,04:39:16,0.001,0.0,0.0,0.0
08/10/2022,04:40:16,0.001,0.0,0.0,0.0
08/10/2022,04:41:15,0.001,0.0,0.0,0.0
08/10/2022,04:42:16,0.001,0.0,0.0,0.0
08/10/2022,04:43:15,0.001,0.0,0.0,0.0
08/10/2022,04:44:15,0.001,0.0,0.0,0.0
08/10/2022,04:45:16,0.001,0.0,0.0,0.0
08/10/2022,04:46:15,0.001,0.0,0.0,0.0
08/10/2022,04:47:15,0.001,0.0,0.0,0.0
08/10/2022,04:48:16,0.001,0.0,0.0,0.0
08/10/2022,04:49:16,0.001,0.0,0.0,0.0
08/10/2022,04:50:15,0.001,0.0,0.0,0.0
08/10/2022,04:51:15,0.001,0.0,0.0,0.0
08/10/2022,04:52:16,0.001,0.0,0.0,0.0
08/10/2022,04:53:16,0.001,0.0,0.0,0.0
08/10/2022,04:54:16,0.001,0.0,0.0,0.0
08/10/2022,04:55:16,0.001,0.0,0.0,0.0
08/10/2022,04:56:15,0.001,0.0,0.0,0.0
08/10/2022,04:57:16,0.001,0.0,0.0,0.0
08/10/2022,04:58:15,0.001,0.0,0.0,0.0
08/10/2022,04:59:15,0.001,0.0,0.0,0.0
08/10/2022,05:00:16,0.001,0.0,0.0,0.0
08/10/2022,05:01:16,0.001,0.0,0.0,0.0
08/10/2022,05:02:15,0.001,0.0,0.0,0.0
08/10/2022,05:03:16,0.001,0.0,0.0,0.0
08/10/2022,05:04:15,0.001,0.0,0.0,0.0
08/10/2022,05:05:16,0.001,0.0,0.0,0.0
08/10/2022,05:06:16,0.001,0.0,0.0,0.0
08/10/2022,05:07:16,0.001,0.0,0.0,0.0
08/10/2022,05:08:15,0.001,0.0,0.0,0.0
08/10/2022,05:09:16,0.001,0.0,0.0,0.0
08/10/2022,05:10:15,-0.000,0.0,0.0,0.0
08/10/2022,05:11:16,0.001,0.0,0.0,0.0
08/10/2022,05:12:16,0.001,0.0,0.0,0.0
08/10/2022,05:13:16,0.001,0.0,0.0,0.0
08/10/2022,05:14:16,0.001,0.0,0.0,0.0
08/10/2022,05:15:15,0.001,0.0,0.0,0.0
08/10/2022,05:17:32,0.001,0.0,0.0,0.0
08/10/2022,05:18:15,0.001,0.0,0.0,0.0
08/10/2022,05:19:16,0.001,0.0,0.0,0.0
08/10/2022,05:20:16,0.001,0.0,0.0,0.0
08/10/2022,05:21:15,0.001,0.0,0.0,0.0
08/10/2022,05:22:15,0.001,0.0,0.0,0.0
08/10/2022,05:23:16,0.001,0.0,0.0,0.0
08/10/2022,05:24:16,0.001,0.0,0.0,0.0
08/10/2022,05:25:16,0.001,0.0,0.0,0.0
08/10/2022,05:26:16,0.001,0.0,0.0,0.0
08/10/2022,05:27:15,0.001,0.0,0.0,0.0
08/10/2022,05:28:15,0.001,0.0,0.0,0.0
08/10/2022,05:29:16,0.001,0.0,0.0,0.0
08/10/2022,05:30:16,0.001,0.0,0.0,0.0
08/10/2022,05:31:16,0.001,0.0,0.0,0.0
08/10/2022,05:32:16,0.001,0.0,0.0,0.0
08/10/2022,05:33:15,0.001,0.0,0.0,0.0
08/10/2022,05:34:16,0.001,0.0,0.0,0.0
08/10/2022,05:35:15,0.001,0.0,0.0,0.0
08/10/2022,05:36:16,0.001,0.0,0.0,0.0
08/10/2022,05:37:16,0.001,0.0,0.0,0.0
08/10/2022,05:38:16,0.001,0.0,0.0,0.0
08/10/2022,05:39:16,0.001,0.0,0.0,0.0
08/10/2022,05:40:16,0.001,0.0,0.0,0.0
08/10/2022,05:41:15,0.001,0.0,0.0,0.0
08/10/2022,05:42:15,0.001,0.0,0.0,0.0
08/10/2022,05:43:16,0.001,0.0,0.0,0.0
08/10/2022,05:44:15,0.001,0.0,0.0,0.0
08/10/2022,05:45:16,0.001,0.0,0.0,0.0
08/10/2022,05:46:16,0.001,0.0,0.0,0.0
08/10/2022,05:47:15,0.001,0.0,0.0,0.0
08/10/2022,05:48:16,0.001,0.0,0.0,0.0
08/10/2022,05:49:16,0.001,0.0,0.0,0.0
08/10/2022,05:50:16,0.001,0.0,0.0,0.0
08/10/2022,05:51:16,0.001,0.0,0.0,0.0
08/10/2022,05:52:16,0.001,0.0,0.0,0.0
08/10/2022,05:53:16,0.001,0.0,0.0,0.0
08/10/2022,05:54:16,0.001,0.0,0.0,0.0
08/10/2022,05:55:16,0.001,0.0,0.0,0.0
08/10/2022,05:56:15,0.001,0.0,0.0,0.0
08/10/2022,05:57:16,0.001,0.0,0.0,0.0
08/10/2022,05:58:16,0.001,0.0,0.0,0.0
08/10/2022,05:59:16,0.001,0.0,0.0,0.0
08/10/2022,06:00:20,0.001,0.0,0.0,0.0
08/10/2022,06:01:17,0.001,0.0,0.0,0.0
08/10/2022,06:02:16,0.001,0.0,0.0,0.0
08/10/2022,06:03:16,0.001,0.0,0.0,0.0
08/10/2022,06:04:16,0.001,0.0,0.0,0.0
08/10/2022,06:05:16,0.001,0.0,0.0,0.0
08/10/2022,06:06:16,0.002,0.0,0.0,0.0
08/10/2022,06:07:15,0.003,0.0,0.0,0.0
08/10/2022,06:08:16,0.002,0.0,0.0,0.0
08/10/2022,06:09:16,0.003,0.0,0.0,0.0
08/10/2022,06:10:15,0.002,0.0,0.0,0.0
08/10/2022,06:11:16,0.002,0.0,0.0,0.0
08/10/2022,06:12:16,0.002,0.0,0.0,0.0
08/10/2022,06:13:16,0.003,0.0,0.0,0.0
08/10/2022,06:14:16,0.003,0.0,0.0,0.0
08/10/2022,06:15:17,0.003,0.0,0.0,0.0
08/10/2022,06:16:17,0.003,0.0,0.0,0.0
08/10/2022,06:17:16,0.003,0.0,0.0,0.0
08/10/2022,06:18:15,0.003,0.0,0.0,0.0
08/10/2022,06:19:16,0.003,0.0,0.0,0.0
08/10/2022,06:20:16,0.004,0.0,0.0,0.0
08/10/2022,06:21:16,0.004,0.0,0.0,0.0
08/10/2022,06:22:16,0.004,0.0,0.0,0.0
08/10/2022,06:23:16,0.005,0.0,0.0,0.0
08/10/2022,06:24:16,0.005,0.0,0.0,0.0
08/10/2022,06:25:16,0.005,0.0,0.0,0.0
08/10/2022,06:26:16,0.005,0.0,0.0,0.0
08/10/2022,06:27:16,0.006,0.0,0.0,0.0
08/10/2022,06:28:16,0.006,0.0,0.0,0.0
08/10/2022,06:29:16,0.006,0.0,0.0,0.0
08/10/2022,06:30:16,0.007,0.0,0.0,0.0
08/10/2022,06:31:16,0.007,0.0,0.0,0.0
08/10/2022,06:32:16,0.006,0.0,0.0,0.0
08/10/2022,06:33:16,0.008,0.0,0.0,0.0
08/10/2022,06:34:16,0.008,0.0,0.001,0.001
08/10/2022,06:35:16,0.008,0.0,0.001,0.0
08/10/2022,06:36:16,0.009,0.0,0.001,0.0
08/10/2022,06:37:16,0.009,0.0,0.001,0.0
08/10/2022,06:38:16,0.010,0.0,0.001,0.0
08/10/2022,06:39:16,0.010,0.0,0.001,0.0
08/10/2022,06:40:16,0.011,0.0,0.002,0.001
08/10/2022,06:42:33,0.012,0.0,0.002,0.0
08/10/2022,06:43:16,0.011,0.0,0.002,0.0
08/10/2022,06:44:16,0.012,0.0,0.002,0.0
08/10/2022,06:45:16,0.013,0.0,0.003,0.001
08/10/2022,06:46:16,0.014,0.0,0.003,0.0
08/10/2022,06:47:18,0.014,0.0,0.003,0.0
08/10/2022,06:48:16,0.015,0.0,0.003,0.0
08/10/2022,06:49:17,0.015,0.0,0.003,0.0
08/10/2022,06:50:16,0.016,0.0,0.004,0.001
08/10/2022,06:51:18,0.016,0.0,0.004,0.0
08/10/2022,06:52:16,0.017,0.0,0.004,0.0
08/10/2022,06:53:16,0.018,0.0,0.005,0.001
08/10/2022,06:54:16,0.018,0.0,0.005,0.0
08/10/2022,06:55:15,0.019,0.0,0.005,0.0
08/10/2022,06:56:15,0.020,0.0,0.006,0.001
08/10/2022,06:57:16,0.021,0.0,0.006,0.0
08/10/2022,06:58:15,0.021,0.0,0.006,0.0
08/10/2022,06:59:16,0.022,0.0,0.007,0.001
08/10/2022,07:00:16,0.023,0.0,0.007,0.0
08/10/2022,07:01:16,0.023,0.0,0.007,0.0
08/10/2022,07:02:16,0.024,0.0,0.008,0.001
08/10/2022,07:03:16,0.026,0.0,0.008,0.0
08/10/2022,07:04:16,0.026,0.0,0.009,0.001
08/10/2022,07:05:16,0.027,0.0,0.009,0.0
08/10/2022,07:06:16,0.029,0.0,0.01,0.001
08/10/2022,07:07:16,0.029,0.0,0.01,0.0
08/10/2022,07:08:16,0.029,0.0,0.01,0.0
08/10/2022,07:09:16,0.031,0.0,0.011,0.001
08/10/2022,07:10:16,0.032,0.0,0.012,0.001
08/10/2022,07:11:16,0.034,0.0,0.012,0.0
08/10/2022,07:12:16,0.034,0.0,0.013,0.001
08/10/2022,07:13:16,0.035,0.0,0.013,0.0
08/10/2022,07:14:16,0.036,0.0,0.014,0.001
08/10/2022,07:15:16,0.037,0.0,0.014,0.0
08/10/2022,07:16:16,0.038,0.0,0.015,0.001
08/10/2022,07:17:16,0.039,0.0,0.016,0.001
08/10/2022,07:18:16,0.040,0.0,0.016,0.0
08/10/2022,07:19:15,0.042,0.0,0.017,0.001
08/10/2022,07:20:16,0.043,0.0,0.018,0.001
08/10/2022,07:21:16,0.044,0.0,0.018,0.0
08/10/2022,07:22:16,0.045,0.0,0.019,0.001
08/10/2022,07:23:16,0.046,0.0,0.02,0.001
08/10/2022,07:24:16,0.048,0.0,0.021,0.001
08/10/2022,07:25:16,0.050,0.0,0.022,0.001
08/10/2022,07:26:16,0.051,0.0,0.022,0.0
08/10/2022,07:27:16,0.051,0.0,0.023,0.001
08/10/2022,07:28:16,0.054,0.0,0.024,0.001
08/10/2022,07:29:16,0.055,0.0,0.025,0.001
08/10/2022,07:30:16,0.056,0.0,0.026,0.001
08/10/2022,07:31:16,0.057,0.0,0.027,0.001
08/10/2022,07:32:16,0.060,0.0,0.028,0.001
08/10/2022,07:33:16,0.061,0.0,0.029,0.001
08/10/2022,07:34:16,0.063,0.0,0.03,0.001
08/10/2022,07:35:16,0.064,0.0,0.031,0.001
08/10/2022,07:36:16,0.066,0.0,0.032,0.001
08/10/2022,07:37:16,0.067,0.0,0.033,0.001
08/10/2022,07:38:16,0.068,0.0,0.034,0.001
08/10/2022,07:39:16,0.071,0.0,0.035,0.001
08/10/2022,07:40:16,0.073,0.0,0.037,0.002
08/10/2022,07:41:16,0.074,0.0,0.038,0.001
08/10/2022,07:42:16,0.076,0.0,0.039,0.001
08/10/2022,07:43:16,0.078,0.0,0.04,0.001
08/10/2022,07:44:18,0.080,0.0,0.042,0.002
08/10/2022,07:45:16,0.081,0.0,0.043,0.001
08/10/2022,07:46:16,0.084,0.0,0.045,0.002
08/10/2022,07:47:16,0.086,0.0,0.046,0.001
08/10/2022,07:48:16,0.088,0.0,0.047,0.001
08/10/2022,07:49:15,0.090,0.0,0.049,0.002
08/10/2022,07:50:16,0.092,0.0,0.05,0.001
08/10/2022,07:51:16,0.094,0.0,0.052,0.002
08/10/2022,07:52:16,0.096,0.0,0.053,0.001
08/10/2022,07:53:16,0.098,0.0,0.055,0.002
08/10/2022,07:54:16,0.100,0.0,0.057,0.002
08/10/2022,07:55:16,0.103,0.0,0.058,0.001
08/10/2022,07:56:16,0.104,0.0,0.06,0.002
08/10/2022,07:57:16,0.106,0.0,0.062,0.002
08/10/2022,07:58:16,0.109,0.0,0.064,0.002
08/10/2022,07:59:16,0.111,0.0,0.066,0.002
08/10/2022,08:00:16,0.113,0.0,0.067,0.001
08/10/2022,08:01:16,0.116,0.0,0.069,0.002
08/10/2022,08:02:16,0.118,0.0,0.071,0.002
08/10/2022,08:03:16,0.120,0.0,0.073,0.002
08/10/2022,08:04:16,0.124,0.0,0.075,0.002
08/10/2022,08:05:16,0.125,0.0,0.077,0.002
08/10/2022,08:06:16,0.127,0.0,0.079,0.002
08/10/2022,08:07:16,0.129,0.0,0.082,0.003
08/10/2022,08:08:16,0.132,0.0,0.084,0.002
08/10/2022,08:09:16,0.134,0.0,0.086,0.002
08/10/2022,08:10:16,0.137,0.0,0.088,0.002
08/10/2022,08:11:16,0.139,0.0,0.091,0.003
08/10/2022,08:12:16,0.141,0.0,0.093,0.002
08/10/2022,08:13:16,0.144,0.0,0.095,0.002
08/10/2022,08:14:16,0.147,0.0,0.098,0.003
08/10/2022,08:15:16,0.149,0.0,0.1,0.002
08/10/2022,08:16:16,0.151,0.0,0.103,0.003
08/10/2022,08:17:16,0.154,0.0,0.105,0.002
08/10/2022,08:18:16,0.158,0.0,0.108,0.003
08/10/2022,08:19:16,0.160,0.0,0.11,0.002
08/10/2022,08:20:16,0.162,0.0,0.113,0.003
08/10/2022,08:21:16,0.165,0.0,0.116,0.003
08/10/2022,08:22:17,0.167,0.0,0.119,0.003
08/10/2022,08:23:16,0.170,0.0,0.121,0.002
08/10/2022,08:24:16,0.172,0.0,0.124,0.003
08/10/2022,08:25:16,0.175,0.0,0.127,0.003
08/10/2022,08:26:16,0.177,0.0,0.13,0.003
08/10/2022,08:27:16,0.181,0.0,0.133,0.003
08/10/2022,08:28:16,0.184,0.0,0.136,0.003
08/10/2022,08:29:17,0.186,0.0,0.139,0.003
08/10/2022,08:30:16,0.189,0.0,0.142,0.003
08/10/2022,08:31:16,0.192,0.0,0.145,0.003
08/10/2022,08:32:16,0.195,0.0,0.149,0.004
08/10/2022,08:33:16,0.199,0.0,0.152,0.003
08/10/2022,08:34:16,0.201,0.0,0.155,0.003
08/10/2022,08:35:16,0.204,0.0,0.159,0.004
08/10/2022,08:36:16,0.207,0.0,0.162,0.003
08/10/2022,08:37:16,0.209,0.0,0.166,0.004
08/10/2022,08:38:16,0.212,0.0,0.169,0.003
08/10/2022,08:39:16,0.216,0.0,0.173,0.004
08/10/2022,08:40:16,0.219,1.0,0.176,0.003
08/10/2022,08:41:16,0.222,1.0,0.18,0.004
08/10/2022,08:42:16,0.226,1.0,0.184,0.004
08/10/2022,08:43:16,0.229,1.0,0.187,0.003
08/10/2022,08:44:16,0.233,1.0,0.191,0.004
08/10/2022,08:45:16,0.236,1.0,0.195,0.004
08/10/2022,08:46:16,0.240,1.0,0.199,0.004
08/10/2022,08:47:16,0.243,1.0,0.203,0.004
08/10/2022,08:48:16,0.246,1.0,0.207,0.004
08/10/2022,08:49:16,0.250,1.0,0.211,0.004
08/10/2022,08:50:16,0.254,1.0,0.216,0.005
08/10/2022,08:51:16,0.257,1.0,0.22,0.004
08/10/2022,08:52:16,0.260,1.0,0.224,0.004
08/10/2022,08:53:16,0.264,1.0,0.229,0.005
08/10/2022,08:54:16,0.268,1.0,0.233,0.004
08/10/2022,08:55:17,0.272,1.0,0.238,0.005
08/10/2022,08:56:16,0.276,1.0,0.242,0.004
08/10/2022,08:57:16,0.281,1.0,0.247,0.005
08/10/2022,08:58:16,0.286,1.0,0.251,0.004
08/10/2022,08:59:16,0.288,1.0,0.256,0.005
08/10/2022,09:00:16,0.292,1.0,0.261,0.005
08/10/2022,09:01:16,0.297,1.0,0.266,0.005
08/10/2022,09:02:17,0.300,1.0,0.271,0.005
08/10/2022,09:03:16,0.304,1.0,0.276,0.005
08/10/2022,09:04:16,0.307,1.0,0.281,0.005
08/10/2022,09:05:16,0.311,1.0,0.286,0.005
08/10/2022,09:06:16,0.315,1.0,0.291,0.005
08/10/2022,09:07:16,0.319,1.0,0.297,0.006
08/10/2022,09:08:17,0.323,1.0,0.302,0.005
08/10/2022,09:09:16,0.327,1.0,0.308,0.006
08/10/2022,09:10:16,0.331,1.0,0.313,0.005
08/10/2022,09:11:16,0.334,1.0,0.319,0.006
08/10/2022,09:12:17,0.340,1.0,0.324,0.005
08/10/2022,09:13:16,0.342,1.0,0.33,0.006
08/10/2022,09:14:16,0.346,1.0,0.336,0.006
08/10/2022,09:15:17,0.351,1.0,0.342,0.006
08/10/2022,09:16:17,0.355,1.0,0.347,0.005
08/10/2022,09:17:16,0.357,1.0,0.353,0.006
08/10/2022,09:18:17,0.362,1.0,0.359,0.006
08/10/2022,09:19:16,0.365,1.0,0.365,0.006
08/10/2022,09:20:16,0.368,1.0,0.371,0.006
08/10/2022,09:21:16,0.371,1.0,0.378,0.007
08/10/2022,09:22:16,0.376,1.0,0.384,0.006
08/10/2022,09:23:16,0.378,1.0,0.39,0.006
08/10/2022,09:24:16,0.383,1.0,0.396,0.006
08/10/2022,09:25:17,0.386,1.0,0.403,0.007
08/10/2022,09:26:16,0.389,1.0,0.409,0.006
08/10/2022,09:27:16,0.393,1.0,0.416,0.007
08/10/2022,09:28:16,0.397,1.0,0.422,0.006
08/10/2022,09:29:17,0.399,1.0,0.429,0.007
08/10/2022,09:30:16,0.403,1.0,0.436,0.007
08/10/2022,09:31:16,0.407,1.0,0.442,0.006
08/10/2022,09:32:17,0.410,1.0,0.449,0.007
08/10/2022,09:33:16,0.414,1.0,0.456,0.007
08/10/2022,09:34:16,0.417,1.0,0.463,0.007
08/10/2022,09:35:16,0.422,1.0,0.47,0.007
08/10/2022,09:36:16,0.425,1.0,0.477,0.007
08/10/2022,09:37:16,0.427,1.0,0.484,0.007
08/10/2022,09:38:16,0.431,1.0,0.491,0.007
08/10/2022,09:39:17,0.435,1.0,0.499,0.008
08/10/2022,09:40:16,0.438,1.0,0.506,0.007
08/10/2022,09:41:16,0.442,1.0,0.513,0.007
08/10/2022,09:42:17,0.445,1.0,0.521,0.008
08/10/2022,09:43:16,0.449,1.0,0.528,0.007
08/10/2022,09:44:16,0.452,1.0,0.536,0.008
08/10/2022,09:45:16,0.456,1.0,0.543,0.007
08/10/2022,09:46:17,0.460,1.0,0.551,0.008
08/10/2022,09:47:16,0.464,1.0,0.558,0.007
08/10/2022,09:48:17,0.469,1.0,0.566,0.008
08/10/2022,09:49:16,0.471,1.0,0.574,0.008
08/10/2022,09:50:16,0.477,1.0,0.582,0.008
08/10/2022,09:51:16,0.479,1.0,0.59,0.008
08/10/2022,09:52:16,0.485,1.0,0.598,0.008
08/10/2022,09:53:17,0.489,1.0,0.606,0.008
08/10/2022,09:54:16,0.493,1.0,0.614,0.008
08/10/2022,09:55:16,0.496,1.0,0.623,0.009
08/10/2022,09:56:16,0.500,1.0,0.631,0.008
08/10/2022,09:57:17,0.505,1.0,0.639,0.008
08/10/2022,09:58:16,0.508,1.0,0.648,0.009
08/10/2022,09:59:17,0.512,1.0,0.656,0.008
08/10/2022,10:00:16,0.517,1.0,0.665,0.009
08/10/2022,10:01:16,0.520,1.0,0.673,0.008
08/10/2022,10:02:16,0.525,1.0,0.682,0.009
08/10/2022,10:03:17,0.527,1.0,0.691,0.009
08/10/2022,10:04:16,0.531,1.0,0.7,0.009
08/10/2022,10:05:16,0.534,1.0,0.709,0.009
08/10/2022,10:06:16,0.537,1.0,0.717,0.008
08/10/2022,10:07:17,0.542,1.0,0.726,0.009
08/10/2022,10:08:16,0.546,1.0,0.736,0.01
08/10/2022,10:09:16,0.549,1.0,0.745,0.009
08/10/2022,10:10:17,0.552,1.0,0.754,0.009